Погода Тангуй

Погода Тангуй : погода сейчас, прогноз погоды и архив. Всё, что Вы хотите узнать о погоде Тангуй!

Хотите узнать прогноз погоды Тангуй? Тогда Вам сюда: Погода Тангуй

Поиск расширенной информации на нашем сайте:

Другие новости

Новости СМИ2

Главная страница сайта

Новости сайта

03.07.2017

Напоминаем, что на нашем специализированном сайте Метеоцентр.Азия вы можете получить высокодетализированные автоматические прогнозы погоды по пунктам России, СНГ и мира в авиационном формате (включающие направление и скорость ветра, видимость, явления погоды, количество и форму облачности, нижнюю и верхнюю границу облачности).


Погода Тангуй - сегодня

Время (UTC), дата Ветер
(°,м/с) 
Видим.   Явления Облачность Т
(°С)
Тd
(°С)
f(%) Тe
(°С)
Pmin
(гПа)
dP
(гПа)
Po
(мм)
O2
(г/м3)
Тmin Tmax R s Состояние
почвы
15 14.08.18 330 (СЗ) н/о  слаб. ливневой дождь  10/10 600 м кучево-дожд. 
[Cb cap]
+12.4 +11.6 95 +17  1009.2  -0.4  720  275           
18 14.08.18 250 (З) н/о  слаб. ливневой дождь  10/10 600 м кучево-дожд. 
[Cb cap]
+11.5 +10.8 95 +16  1008.8  -0.5  719  276           
21 14.08.18 240 (ЮЗ) н/о  {ливн. осадки}  10/10 600 м кучево-дожд. 
[Cb cap]
+11.6 +10.7 94 +14  1008.5  -0.3  719  276           
00 15.08.18 220 (ЮЗ) 20000 м  слаб. ливневой дождь  10/10 300 м кучево-дожд. 
[Cb cap]
+10.8 +9.9 94 +12  1008.8  0.2  719  277  +10.8    13    мокрая 
03 15.08.18 250 (З) 10 км  слаб. ливневой дождь  10/10 300 м кучево-дожд. 
[Cb cap]
+11.1 +10.1 94 +13  1009  0.2  720  277           
12 15.08.18 220 (ЮЗ) 20000 м  слаб. ливневой дождь  10/4 600 м кучево-дожд., средняя, верхняя 
[Cb cap|Ac trans|Cs]
+12.2 +10.7 91 +16  1016.1  725  278    +12.4     
15 15.08.18 230 (ЮЗ) н/о  {ливн. осадки}  10/10 600 м кучево-дожд. 
[Cb cap]
+12.6 +10.4 86 +15  1015.6  -0.4  725  277           
18 15.08.18 270 (З) н/о  {ливн. осадки}  10/10 600 м кучево-дожд. 
[Cb cap]
+12.6 +9.9 84 +15  1014.8  -0.8  724  277           
21 15.08.18 230 (ЮЗ) н/о  слаб. ливневой дождь  10/10 300 м кучево-дожд. 
[Cb cap]
+11.6 +9.9 89 +14  1014.4  -0.6  723  278           
00 16.08.18 250 (З) 20000 м  {ливн. осадки}  10/10 600 м кучево-дожд. 
[Cb cap]
+12.9 +9.3 79 +14  1014  -0.1  723  277  +11.2    0.7    мокрая 
03 16.08.18 250 (З) 20000 м    9/9 600 м 
[Sc]
+15.1 +9.9 71 +18  1013.5  -0.1  723  274           
06 16.08.18 270 (З) 20000 м    9/6 300 м средняя 
[St|Ac trans]
+17.8 +10.5 62 +22  1012.5  -0.5  723  271           
09 16.08.18 250 (З) 20000 м    9/4 600 м кучево-дожд., средняя 
[Cb cap|Ac trans]
+18.6 +10.6 60 +23  1011.8  -0.5  723  271           
12 16.08.18 260 (З) 20000 м    6/1 600 м средняя 
[Sc|Ac trans]
+17.7 +10.9 64 +22  1012.2  0.2  723  271    +20.4       
15 16.08.18 260 (З) н/о    8/3 600 м средняя 
[Sc|Ac trans]
+15.3 +11 76 +19  1012.1  -0.5  722  273           
18 16.08.18 240 (ЮЗ) н/о  в посл. час ливневой дождь  10/10 600 м кучево-дожд. 
[Cb cap]
+14.1 +10.6 79 +18  1011.5  -0.8  722  275           
21 16.08.18 240 (ЮЗ) н/о    9/9 600 м кучево-дожд. 
[Cb cap]
+13.3 +9.4 77 +14  1010.5  -1.1  721  275           
00 17.08.18 250 (З) 20000 м    10/0 верхняя 
[Cs]
+12.9 +9.5 80 +14  1011  0.4  721  276  +12.7    0.1    влажная 
03 17.08.18 280 (З) 20000 м    10/0 средняя, верхняя 
[Ac trans|Ci fib]
+18.7 +12.1 65 +25  1009.7  -0.3  721  270           
06 17.08.18 240 (ЮЗ) 20000 м    10/3 600 м кучево-дожд., верхняя 
[Cb cap|Ci fib]
+22.2 +13.5 58 +29  1007.7  -1.2  720  266           
09 17.08.18 310 (СЗ) 20000 м    10/3 1000 м верхняя 
[Cu hum|Ci fib]
+23.6 +12.7 50 +30  1007.1  -0.4  720  264           
12 17.08.18 тихо ()   20000 м    8/0 верхняя 
[Ci fib]
+18.5 +13.3 72 +25  1007.3  -0.6  719  269    +24.3       
15 17.08.18 тихо ()   н/о    3/0 верхняя 
[Ci fib]
+13.4 +12.1 92 +18  1008.1  -0.1  719  274           
18 17.08.18 тихо ()   н/о    ясно 
+11.1 +10.4 95 +14  1007.1  -1.3  718  276           
21 17.08.18 030 (СВ) н/о  туман  10/0 верхняя 
[Ci fib]
+10.5 +9.9 96 +14  1006.6  -0.7  718  277           
Время (UTC), дата Ветер
(°,м/с) 
Видим.   Явления Облачность Т
(°С)
Тd
(°С)
f(%) Тe
(°С)
Pmin
(гПа)
dP
(гПа)
Po
(мм)
O2
(г/м3)
Тmin Tmax R s Состояние
почвы

Для получения пояснительной информации подведите курсор к названию столбца.

ПОГОДА Тангуй - архив

Всё, что Вы хотите узнать о погоде Тангуй - удобно и подробно!

Выберите нужную дату (начиная с 1 января 2015* года) и нажмите кнопку "Найти".
Будут отображены архивные сводки погоды по пункту Тангуй, начиная с указанной даты.


Отображать данные в формате CSV (для использования в таблицах Excel)


Внимание! Наш архив погоды предназначен исключительно для личного некоммерческого использования в познавательных целях. Если Вам необходимы официальные справки о состоянии погоды (для производственных, юридических, коммерческих и т.п. целей), обращайтесь в органы Росгидромета.

*Примечание: данная дата относится к архиву по метеостанциям СССР (Россия, СНГ, Балтия).
Архив по метеостанциям Зарубежной Европы и Азии (кроме Китая) хранится 10 дней, по другим регионам земного шара (Китай, Африка, Америка, Австралия, Океания) - 1 день.

Тангуй - район местоположения метеостанции


Название, широта, долгота, высота метеостанции:
Тангуй 55.4°ш. 101°д. 423 м над ур. моря [Российская Федерация]

Дополнительная информация

В oтличие oт бoльшинства пoгoдных сайтoв мы публикуем пoдрoбную метеoинфoрмацию в детальнoм прoфессиoнальнoм фoрмате.

Характеристики температуры и влажнoсти вoздуха измеряются на высoте 2 м в тени вдали oт зданий и деревьев.
Скoрoсть ветра измеряется на высoте 10 м (на урoвне рoста челoвека скoрoсть ветра ниже в 1.5-2 раза). Если метеoстанция нахoдится в гoрoде или в лесу, тo скoрoсть ветра занижена на 2-4 м/с пo сравнению с oткрытым местoм. Скoрoсть ветра над акватoриями крупных рек и oзёр, а также на вершинах хoлмoв на 2-5 м/с выше, чем в oбычных услoвиях.
Атмoсфернoе давление в разных тoчках местнoсти мoжет значительнo oтличаться oт давления на метеoстанции, в зависимoсти oт услoвий рельефа (при пoдъёме на 10 м давление пoнижается примернo на 1 мм рт.ст.).